Location: Milo
(50.5667°N, 112.8833°W)
Time: 00:35:30
(UTC+00:00)

N. Korean satellite - Pass Details

Date: 09 December 2021
Orbit: 446 x 492 km, 97.3° (Epoch: 16 January)

Event Time Altitude Azimuth Distance (km) Brightness Sun altitude
Rises 11:45:06 0° 31° (NNE) 2,463 10.6 -33.0°
Reaches altitude 10° 11:48:04 10° 60° (ENE) 1,582 9.8 -32.5°
Maximum altitude 11:49:43 13° 90° (E) 1,404 9.7 -32.3°
Drops below altitude 10° 11:51:21 10° 119° (ESE) 1,576 9.8 -32.0°
Sets 11:54:18 0° 148° (SSE) 2,445 10.5 -31.6°
